Flag for U.S.A. Weather past 2 weeks in Salt Lake City, Utah, U.S.A.

Now
67 °F

Passing clouds.


Feels Like: 67 °F
Forecast: 64 / 89 °F
Wind: 3 mph from Northeast

Location: Salt Lake City International Airport

Current Time: Aug 1, 2014 at 7:54:20 AM

Latest Report: Aug 1, 2014 at 6:53 AM


Visibility: 10 mi

Pressure: 30.00 "Hg

Humidity: 59%

Dew point: 52 °F

Location of Salt Lake CityLocation

Historic Weather in Salt Lake City — Graph

°F

Salt Lake City temperature yesterday

Maximum temperature yesterday: 84 °F (at 2:53 PM)
Minimum temperature yesterday: 63 °F (at 6:53 AM)
Average temperature yesterday: 75 °F

Past Weeks' High & Low Weather Summary

 TemperatureHumidityPressure
High102 °F (Jul 23, 5:53 PM)97% (Jul 30, 4:53 AM)30.22 "Hg (Jul 30, 4:53 AM)
Low63 °F (Jul 31, 6:53 AM)7% (Jul 21, 4:53 PM)29.71 "Hg (Jul 17, 8:53 PM)
Average80 °F34%29.89 "Hg
* Reported Jul 17 5:53 AM — Aug 1 5:53 AM, Salt Lake City, Weather by CustomWeather, © 2014

Note: Actual official high and low records may vary slightly from our data, if they occured in-between our weather recording intervals... More about our weather records

Advertising

Salt Lake City weather history for previous 24 hours

 ConditionsComfort  
Time TempWeatherWind HumidityBarometerVisibility
5:53 AM
Aug 1
67 °FPassing clouds.6 mph61%29.97 "Hg10 mi
4:53 AM66 °FPassing clouds.8 mph61%29.96 "Hg10 mi
3:53 AM67 °FPassing clouds.5 mph61%29.96 "Hg10 mi
2:53 AM68 °FPassing clouds.6 mph61%29.96 "Hg10 mi
1:53 AM70 °FPassing clouds.6 mph55%29.96 "Hg10 mi
12:53 AM71 °FPassing clouds.3 mph55%29.97 "Hg10 mi
11:53 PM
Jul 31
72 °FPassing clouds.7 mph53%29.97 "Hg10 mi
10:53 PM73 °FPassing clouds.3 mph50%29.97 "Hg10 mi
9:53 PM76 °FPartly cloudy.5 mph48%29.95 "Hg10 mi
8:53 PM78 °FPartly sunny.6 mph36%29.95 "Hg10 mi
7:53 PM82 °FPartly sunny.9 mph24%29.94 "Hg10 mi
6:53 PM83 °FPartly sunny.12 mph32%29.95 "Hg10 mi
5:53 PM82 °FBroken clouds.14 mph35%29.96 "Hg10 mi
4:53 PM84 °FPartly sunny.9 mph33%29.96 "Hg10 mi
3:53 PM84 °FPartly sunny.10 mph32%29.96 "Hg10 mi
2:53 PM84 °FScattered clouds.5 mph32%29.98 "Hg10 mi
1:53 PM83 °FScattered clouds.10 mph32%29.99 "Hg10 mi
12:53 PM81 °FPassing clouds.8 mph37%30.01 "Hg10 mi
11:53 AM80 °FScattered clouds.No wind39%30.03 "Hg10 mi
10:53 AM78 °FScattered clouds.6 mph42%30.03 "Hg10 mi
9:53 AM76 °FScattered clouds.6 mph47%30.03 "Hg10 mi
8:53 AM71 °FPassing clouds.No wind53%30.04 "Hg10 mi
7:53 AM68 °FPassing clouds.6 mph63%30.04 "Hg10 mi
Weather by CustomWeather, © 2014

See weather overviewHow to use our weather pages